Aeroporto :







RITROVATECI SU...

 
LOGIN :

Iscrizione | Disclaimer

   EN    FR    IT 

 









Sommario :    VFR   VFR Marginale   IFR   IFR Intensivo   IFR Molto Intensivo
Visibilità : 
Base nubi : 
>= 8 km
>= 3000ft
5 / 8 km
1000 / 3000 ft
1500m / 5 km
500 / 1000 ft
800 / 1500m
200 / 500 ft
< 800m
< 200 ft
Simboli :   Temporali  Nebbia  Neve Forte  Precipitazioni Forti  Vento > 20 kt






- Altitudine del aeroporto : 58 ft
- Codice IATA : POS


TTPP - Piarco Int.

ULTIMO METAR :
  • 281400Z 13006KT 9999 SCT018 31/24 Q1010 NOSIG

METARs OBSOLETI :
  • 281300Z 00000KT 9999 SCT016 31/23 Q1010 NOSIG
  • 281200Z 00000KT 9999 VCSH FEW016 29/24 Q1009 NOSIG RMK VCSH-NE/ENE

TAF TAF TTPP
Valido dal 28 a 12 ore il 29 a 12 ore UTC


281000Z 2812/2912 09008KT 9999 FEW018
TEMPO 2816/2822 8000 SHRA SCT016
PROB30
TEMPO 2815/2821 09008G20KT 3000 TSRA FEW010CB BKN014
BECMG 2900/2902 00000KT FEW016
FIR TTZP / America del Nord



MetMap, La meteo Aeronautica in un colpo d'occhio ! - Copyright ORBIFLY Dicembre 2007 - Disclaimer

ORBIFLY MET'MAP TEAM :

Programmazione e sviluppo : Alexandra Zaïnal
Concezione : Baudouin d'Aumeries
Aiuto per la programmazione : Marc-Olivier Méhu
Supporto tecnico e logistico : Manuel Goepfert
Aiuto per la traduzione : Arnaldo La Scala

Contatto : metmap@orbifly.com




FONTI E CREDITI :

   NOAA